Saguache, CO

7:25 AM MDT on October 20, 2017 (GMT -0600)
Saguache

Weather History for K04V - March, 2013

Change the Weather History Date:

Thursday, March 28, 2013

  Actual Average (KALS) Record (KALS)
Temperature  
Mean Temperature - -  
Max Temperature - 50 °F 71 °F (2015)
Min Temperature - 18 °F -5 °F (1970)
Moisture  
Dew Point -    
Average Humidity    
Maximum Humidity    
Minimum Humidity    
Precipitation  
Precipitation 0.00 in - - ()
Sea Level Pressure  
Sea Level Pressure 30.16 in    
Wind  
Wind Speed 9 mph (NNW)    
Max Wind Speed 14 mph    
Max Gust Speed 22 mph    
Visibility 10 miles    
Events      
Averages and records for this station are not official NWS values.
T = Trace of Precipitation, MM = Missing Value Source: NWS Daily Summary

Daily Weather History Graph

Daily Weather History Graph

Search for Another Location

Airport or City:

Trip Planner

Search our weather history database for the weather conditions in past years. The results will help you decide how hot, cold, wet, or windy it might be!

Date:

Astronomy

Mar. 28, 2013 Rise Set
Actual Time 6:55 AM MDT 7:24 PM MDT
Civil Twilight 6:29 AM MDT 7:50 PM MDT
Nautical Twilight 5:57 AM MDT 8:22 PM MDT
Astronomical Twilight 5:26 AM MDT 8:53 PM MDT
Moon 9:16 PM MDT (3/28) 7:27 AM MDT (3/28)
Length of Visible Light 13h 21m
Length of Day
12h 28m
Full, 98% of the Moon is Illuminated
Mar 28
Full
Apr 2
Last Quarter
Apr 10
New
Apr 18
First Quarter
Apr 25
Full

Hourly Weather History & Observations

Time (MDT) Temp. Dew Point Humidity Pressure Visibility Wind Dir Wind Speed Gust Speed Precip Events Conditions
12:16 AM - - N/A% 30.14 in 10.0 mi NNW 9.2 mph - N/A   Clear
12:36 AM - - N/A% 30.14 in 10.0 mi NW 13.8 mph - N/A   Clear
12:56 AM - - N/A% 30.14 in 10.0 mi NNW 8.1 mph - N/A   Clear
1:16 AM - - N/A% 30.14 in 10.0 mi NW 10.4 mph - N/A   Clear
1:36 AM - - N/A% 30.14 in 10.0 mi NW 5.8 mph - N/A   Clear
1:56 AM - - N/A% 30.14 in 10.0 mi NW 9.2 mph - N/A   Clear
2:16 AM - - N/A% 30.14 in 10.0 mi NNW 11.5 mph - N/A   Clear
2:36 AM - - N/A% 30.14 in 10.0 mi North 10.4 mph 16.1 mph N/A   Clear
2:56 AM - - N/A% 30.14 in 10.0 mi NNW 11.5 mph 16.1 mph N/A   Clear
3:16 AM - - N/A% 30.14 in 10.0 mi NNW 6.9 mph - N/A   Clear
3:36 AM - - N/A% 30.14 in 10.0 mi NNW 11.5 mph - N/A   Clear
3:56 AM - - N/A% 30.14 in 10.0 mi NNW 10.4 mph - N/A   Clear
4:16 AM - - N/A% 30.14 in 10.0 mi NNW 10.4 mph - N/A   Clear
4:36 AM - - N/A% 30.14 in 10.0 mi NNW 9.2 mph - N/A   Clear
4:56 AM - - N/A% 30.14 in 10.0 mi NNW 9.2 mph - N/A   Clear
5:16 AM - - N/A% 30.14 in 10.0 mi NW 11.5 mph - N/A   Scattered Clouds
5:36 AM - - N/A% 30.14 in 10.0 mi NNW 12.7 mph - N/A   Mostly Cloudy
5:56 AM - - N/A% 30.15 in 10.0 mi NNW 11.5 mph - N/A   Mostly Cloudy
6:16 AM - - N/A% 30.15 in 10.0 mi NNW 11.5 mph - N/A   Mostly Cloudy
6:36 AM - - N/A% 30.15 in 10.0 mi NNW 11.5 mph - N/A   Scattered Clouds
6:56 AM - - N/A% 30.16 in 10.0 mi NNW 13.8 mph - N/A   Scattered Clouds
7:16 AM - - N/A% 30.16 in 10.0 mi NNW 13.8 mph - N/A   Scattered Clouds
7:35 AM - - N/A% 30.17 in 10.0 mi NW 12.7 mph - N/A   Clear
7:56 AM - - N/A% 30.17 in 10.0 mi NW 12.7 mph 18.4 mph N/A   Clear
8:16 AM - - N/A% 30.18 in 10.0 mi NW 11.5 mph - N/A   Clear
8:36 AM - - N/A% 30.19 in 10.0 mi NNW 11.5 mph - N/A   Clear
8:54 AM - - N/A% 30.19 in 10.0 mi NW 9.2 mph - N/A   Clear
9:16 AM - - N/A% 30.20 in 10.0 mi West 3.5 mph - N/A   Clear
9:36 AM - - N/A% 30.19 in 10.0 mi ESE 5.8 mph - N/A   Clear
9:55 AM - - N/A% 30.20 in 10.0 mi Calm Calm - N/A   Clear
10:16 AM - - N/A% 30.19 in 10.0 mi ESE 3.5 mph - N/A   Clear
10:34 AM - - N/A% 30.19 in 10.0 mi East 3.5 mph - N/A   Clear
10:55 AM - - N/A% 30.19 in 10.0 mi ENE 3.5 mph - N/A   Clear
11:15 AM - - N/A% 30.19 in 10.0 mi ESE 8.1 mph - N/A   Clear
11:35 AM - - N/A% 30.18 in 10.0 mi SSE 5.8 mph - N/A   Scattered Clouds
11:56 AM - - N/A% 30.17 in 7.0 mi SW 8.1 mph - N/A   Mostly Cloudy
12:14 PM - - N/A% 30.17 in 10.0 mi NE 4.6 mph - N/A   Scattered Clouds
12:36 PM - - N/A% 30.16 in 10.0 mi WSW 8.1 mph 17.3 mph N/A   Mostly Cloudy
12:55 PM - - N/A% 30.16 in 10.0 mi SSW 8.1 mph - N/A   Mostly Cloudy
1:15 PM - - N/A% 30.15 in 10.0 mi ENE 6.9 mph - N/A   Scattered Clouds
1:36 PM - - N/A% 30.15 in 10.0 mi South 12.7 mph 16.1 mph N/A   Mostly Cloudy
1:56 PM - - N/A% 30.14 in 10.0 mi South 10.4 mph 21.9 mph N/A   Overcast
2:16 PM - - N/A% 30.15 in 10.0 mi SW 6.9 mph - N/A   Overcast
2:36 PM - - N/A% 30.14 in 10.0 mi WSW 4.6 mph - N/A   Mostly Cloudy
2:56 PM - - N/A% 30.14 in 10.0 mi SW 13.8 mph 18.4 mph N/A   Overcast
3:16 PM - - N/A% 30.14 in 10.0 mi ENE 6.9 mph 18.4 mph N/A   Overcast
3:36 PM - - N/A% 30.14 in 10.0 mi NE 3.5 mph - N/A   Mostly Cloudy
3:55 PM - - N/A% 30.14 in 10.0 mi North 5.8 mph - N/A   Mostly Cloudy
4:16 PM - - N/A% 30.14 in 10.0 mi NNW 9.2 mph - N/A   Overcast
4:35 PM - - N/A% 30.14 in 10.0 mi NNE 6.9 mph - N/A   Overcast
4:55 PM - - N/A% 30.14 in 10.0 mi ESE 9.2 mph 17.3 mph N/A   Overcast
5:16 PM - - N/A% 30.14 in 10.0 mi NNE 5.8 mph 16.1 mph N/A   Overcast
5:35 PM - - N/A% 30.14 in 10.0 mi NNE 6.9 mph - N/A   Mostly Cloudy
5:55 PM - - N/A% 30.15 in 10.0 mi NNE 12.7 mph - N/A   Scattered Clouds
6:11 PM - - N/A% 30.14 in 10.0 mi NNE 11.5 mph 16.1 mph N/A   Clear
10:16 PM - - N/A% 30.21 in 10.0 mi WNW 8.1 mph - N/A   Clear
10:22 PM - - N/A% 30.21 in 10.0 mi West 8.1 mph - N/A   Clear
10:51 PM - - N/A% 30.21 in 10.0 mi NNW 12.7 mph - N/A   Clear